Dalzell, IL

1:10 AM CST on December 09, 2016 (GMT -0600)
Illinois Valley Regional-Duncan

Weather History for KVYS - September, 2012

Change the Weather History Date:

Sunday, September 23, 2012

  Actual Average Record
Temperature  
Mean Temperature 48 °F -  
Max Temperature 61 °F 71 °F 90 °F (1988)
Min Temperature 36 °F 46 °F 27 °F (1974)
Degree Days  
Heating Degree Days 16    
Moisture  
Dew Point 34 °F    
Average Humidity 62    
Maximum Humidity 93    
Minimum Humidity 28    
Precipitation  
Precipitation 0.00 in - - ()
Sea Level Pressure  
Sea Level Pressure 30.25 in    
Wind  
Wind Speed 6 mph (WNW)    
Max Wind Speed 17 mph    
Max Gust Speed 22 mph    
Visibility 10 miles    
Events      
Averages and records for this station are not official NWS values.
T = Trace of Precipitation, MM = Missing Value Source: NWS Daily Summary

Daily Weather History Graph

Daily Weather History Graph

Search for Another Location

Airport or City:

Trip Planner

Search our weather history database for the weather conditions in past years. The results will help you decide how hot, cold, wet, or windy it might be!

Date:

Astronomy

Sep. 23, 2012 Rise Set
Actual Time 6:45 AM CDT 6:51 PM CDT
Civil Twilight 6:18 AM CDT 7:18 PM CDT
Nautical Twilight 5:45 AM CDT 7:50 PM CDT
Astronomical Twilight 5:12 AM CDT 8:23 PM CDT
Moon 2:55 PM CDT (9/23) No Moon Set
Length of Visible Light 13h 00m
Length of Day
12h 05m
First Quarter, 60% of the Moon is Illuminated
Sep 23
First Quarter
Sep 29
Full
Oct 8
Last Quarter
Oct 15
New
Oct 21
First Quarter

Hourly Weather History & Observations

Time (CDT) Temp. Windchill Dew Point Humidity Pressure Visibility Wind Dir Wind Speed Gust Speed Precip Events Conditions
12:15 AM 42.1 °F 37.1 °F 37.9 °F 85% 30.20 in 10.0 mi WNW 8.1 mph - N/A   Clear
12:35 AM 42.1 °F 37.1 °F 37.8 °F 85% 30.20 in 10.0 mi WNW 8.1 mph - N/A   Clear
12:55 AM 41.5 °F 35.9 °F 37.4 °F 85% 30.20 in 10.0 mi WNW 9.2 mph - N/A   Clear
1:15 AM 41.0 °F 36.4 °F 37.0 °F 86% 30.20 in 10.0 mi WNW 6.9 mph - N/A   Clear
1:35 AM 41.9 °F 38.2 °F 37.8 °F 85% 30.21 in 10.0 mi WNW 5.8 mph - N/A   Clear
1:55 AM 41.4 °F 37.6 °F 37.2 °F 85% 30.21 in 10.0 mi West 5.8 mph - N/A   Clear
2:15 AM 41.2 °F 37.3 °F 37.2 °F 86% 30.21 in 10.0 mi WNW 5.8 mph - N/A   Clear
2:35 AM 40.5 °F 36.5 °F 36.9 °F 87% 30.22 in 10.0 mi WNW 5.8 mph - N/A   Clear
2:55 AM 40.1 °F 35.3 °F 36.7 °F 88% 30.22 in 10.0 mi WNW 6.9 mph - N/A   Clear
3:15 AM 41.0 °F 36.4 °F 37.4 °F 87% 30.22 in 10.0 mi WNW 6.9 mph - N/A   Clear
3:35 AM 41.0 °F 36.4 °F 37.4 °F 87% 30.23 in 10.0 mi WNW 6.9 mph - N/A   Clear
3:55 AM 39.7 °F 36.5 °F 36.5 °F 88% 30.23 in 10.0 mi WNW 4.6 mph - N/A   Clear
4:15 AM 39.6 °F 34.7 °F 36.7 °F 89% 30.23 in 10.0 mi WNW 6.9 mph - N/A   Clear
4:35 AM 39.6 °F 35.4 °F 36.9 °F 90% 30.23 in 10.0 mi WNW 5.8 mph - N/A   Clear
4:55 AM 39.6 °F 36.3 °F 36.5 °F 89% 30.23 in 10.0 mi West 4.6 mph - N/A   Clear
5:15 AM 37.6 °F 33.1 °F 35.1 °F 91% 30.25 in 10.0 mi NNW 5.8 mph - N/A   Clear
5:35 AM 37.0 °F 32.4 °F 34.9 °F 92% 30.25 in 10.0 mi NW 5.8 mph - N/A   Clear
5:55 AM 36.9 °F 33.1 °F 34.7 °F 92% 30.25 in 10.0 mi NW 4.6 mph - N/A   Clear
6:15 AM 36.9 °F - 34.9 °F 93% 30.25 in 10.0 mi Calm Calm - N/A   Clear
6:35 AM 37.0 °F 33.3 °F 34.9 °F 92% 30.26 in 10.0 mi West 4.6 mph - N/A   Clear
6:55 AM 36.5 °F 33.9 °F 34.2 °F 91% 30.26 in 10.0 mi West 3.5 mph - N/A   Clear
7:15 AM 37.4 °F 34.9 °F 35.6 °F 93% 30.26 in 10.0 mi West 3.5 mph - N/A   Clear
7:35 AM 37.4 °F 33.8 °F 35.2 °F 92% 30.27 in 10.0 mi West 4.6 mph - N/A   Clear
7:55 AM 40.3 °F 38.2 °F 38.1 °F 92% 30.27 in 10.0 mi West 3.5 mph - N/A   Clear
8:15 AM 42.8 °F 40.1 °F 39.2 °F 87% 30.28 in 10.0 mi WNW 4.6 mph - N/A   Clear
8:35 AM 44.2 °F - 39.9 °F 85% 30.28 in 10.0 mi Calm Calm - N/A   Clear
8:55 AM 46.4 °F 45.2 °F 40.1 °F 79% 30.28 in 10.0 mi WNW 3.5 mph - N/A   Clear
9:15 AM 48.2 °F - 40.1 °F 74% 30.28 in 10.0 mi Calm Calm - N/A   Clear
9:35 AM 49.3 °F - 40.3 °F 71% 30.29 in 10.0 mi Calm Calm - N/A   Clear
9:55 AM 52.0 °F - 39.9 °F 63% 30.29 in 10.0 mi Calm Calm - N/A   Clear
10:15 AM 52.9 °F - 37.8 °F 56% 30.28 in 10.0 mi Calm Calm - N/A   Clear
10:35 AM 54.5 °F - 37.6 °F 53% 30.28 in 10.0 mi Calm Calm - N/A   Clear
10:55 AM 55.8 °F - 38.1 °F 52% 30.28 in 10.0 mi NW 8.1 mph - N/A   Clear
11:15 AM 56.3 °F - 37.8 °F 50% 30.29 in 10.0 mi West 8.1 mph - N/A   Clear
11:35 AM 57.6 °F - 35.6 °F 44% 30.28 in 10.0 mi WNW 10.4 mph 20.7 mph N/A   Clear
11:55 AM 58.1 °F - 33.4 °F 39% 30.28 in 10.0 mi West 12.7 mph 20.7 mph N/A   Clear
12:15 PM 59.4 °F - 34.2 °F 39% 30.28 in 10.0 mi West 13.8 mph 19.6 mph N/A   Clear
12:35 PM 59.5 °F - 34.5 °F 39% 30.27 in 10.0 mi WNW 11.5 mph 19.6 mph N/A   Clear
12:55 PM 59.0 °F - 33.6 °F 38% 30.27 in 10.0 mi NW 15.0 mph 18.4 mph N/A   Clear
1:15 PM 59.5 °F - 32.0 °F 35% 30.26 in 10.0 mi NW 17.3 mph 21.9 mph N/A   Clear
1:35 PM 59.9 °F - 31.6 °F 34% 30.26 in 10.0 mi NNW 9.2 mph 18.4 mph N/A   Clear
1:55 PM 59.9 °F - 31.6 °F 34% 30.25 in 10.0 mi WNW 8.1 mph - N/A   Clear
2:15 PM 59.9 °F - 29.5 °F 32% 30.25 in 10.0 mi WNW 10.4 mph 17.3 mph N/A   Clear
2:35 PM 60.4 °F - 30.0 °F 32% 30.24 in 10.0 mi NW 15.0 mph - N/A   Clear
2:55 PM 60.4 °F - 26.8 °F 28% 30.24 in 10.0 mi West 12.7 mph 17.3 mph N/A   Clear
3:15 PM 61.2 °F - 30.2 °F 31% 30.23 in 10.0 mi WNW 16.1 mph 19.6 mph N/A   Clear
3:35 PM 60.6 °F - 28.0 °F 29% 30.23 in 10.0 mi West 9.2 mph 17.3 mph N/A   Clear
3:55 PM 60.8 °F - 29.3 °F 30% 30.23 in 10.0 mi NW 10.4 mph 18.4 mph N/A   Clear
4:15 PM 61.2 °F - 31.3 °F 32% 30.23 in 10.0 mi NW 12.7 mph 18.4 mph N/A   Clear
4:35 PM 60.6 °F - 30.9 °F 33% 30.23 in 10.0 mi NW 9.2 mph 17.3 mph N/A   Clear
4:55 PM 60.3 °F - 28.9 °F 31% 30.23 in 10.0 mi WNW 9.2 mph - N/A   Clear
5:15 PM 60.4 °F - 30.6 °F 32% 30.23 in 10.0 mi NW 9.2 mph - N/A   Clear
5:35 PM 59.9 °F - 30.4 °F 33% 30.22 in 10.0 mi WNW 9.2 mph - N/A   Clear
5:55 PM 59.7 °F - 30.9 °F 34% 30.22 in 10.0 mi NW 9.2 mph - N/A   Clear
6:15 PM 57.7 °F - 30.4 °F 35% 30.22 in 10.0 mi NW 8.1 mph - N/A   Clear
6:35 PM 55.6 °F - 30.4 °F 38% 30.23 in 10.0 mi NW 6.9 mph - N/A   Clear
6:55 PM 53.2 °F - 31.1 °F 43% 30.23 in 10.0 mi NW 6.9 mph - N/A   Clear
7:15 PM 50.5 °F - 32.0 °F 49% 30.23 in 10.0 mi NW 5.8 mph - N/A   Clear
7:35 PM 50.4 °F - 32.0 °F 49% 30.23 in 10.0 mi NW 4.6 mph - N/A   Clear
7:55 PM 52.2 °F - 31.5 °F 45% 30.24 in 10.0 mi North 3.5 mph - N/A   Clear
8:15 PM 50.5 °F - 31.6 °F 48% 30.25 in 10.0 mi North 3.5 mph - N/A   Clear
8:35 PM 49.5 °F - 32.0 °F 51% 30.25 in 10.0 mi NNW 3.5 mph - N/A   Clear
8:55 PM 48.7 °F - 32.0 °F 52% 30.25 in 10.0 mi Calm Calm - N/A   Clear
9:15 PM 45.5 °F 44.2 °F 32.0 °F 59% 30.25 in 10.0 mi North 3.5 mph - N/A   Clear
9:35 PM 48.0 °F - 32.4 °F 55% 30.25 in 10.0 mi Calm Calm - N/A   Clear
9:55 PM 46.2 °F - 32.2 °F 58% 30.25 in 10.0 mi Calm Calm - N/A   Clear
10:15 PM 44.6 °F - 32.2 °F 62% 30.25 in 10.0 mi Calm Calm - N/A   Clear
10:35 PM 44.2 °F - 33.8 °F 67% 30.25 in 10.0 mi Calm Calm - N/A   Clear
10:55 PM 41.4 °F - 33.8 °F 74% 30.25 in 10.0 mi Calm Calm - N/A   Clear
11:15 PM 44.2 °F - 32.7 °F 64% 30.25 in 10.0 mi Calm Calm - N/A   Clear
11:35 PM 43.3 °F - 33.4 °F 68% 30.25 in 10.0 mi Calm Calm - N/A   Clear
11:55 PM 42.3 °F - 33.1 °F 70% 30.24 in 10.0 mi Calm Calm - N/A   Clear